User: anonymous   Login
Location: Unspecified
(0.0000°N, 0.0000°E)
Time: 03:38:21
(UTC+00:00)
Language:

UFO 11 (USA 174) - Orbit

View from above orbital plane
View from above orbital plane
View from above satellite
View from above satellite

Ground track
Ground track

The orbit data is extracted from the following two-line orbital elements,

1 28117U 03057A   17165.15980120 0.00000000  00000-0  00000-0 0    03
2 28117   4.9942  35.2285 0002004 287.7792  72.1846  1.00270000    00
Epoch (UTC): 14 June 2017 03:50:06
Eccentricity: 0.0002004
inclination: 4.9942°
perigee height: 35778 km
apogee height: 35795 km
right ascension of ascending node: 35.2285°
argument of perigee: 287.7792°
revolutions per day: 1.00270000
mean anomaly at epoch: 72.1846°
orbit number at epoch: 0

The dashed part of the orbit path shows where the satellite is in the earth's shadow,  

DLR